GEFSNGP_con_cape1000_156.txt.gz
Probability
0 0 0 0 0 0 0 0 0 0 3 19 42 45 48 58 71 71 65 58 58 61 68 65 61 58 52 45 48 45 39 42 42 45 48 45 39 42 39 42 39 42 39 35
0 0 0 0 0 0 0 0 0 0 16 39 45 52 61 61 65 55 58 55 52 48 58 55 55 55 48 48 45 39 39 29 35 39 35 32 42 45 39 35 35 35 35 39
0 0 0 0 0 0 0 0 0 3 16 45 45 45 58 61 48 48 45 48 52 52 45 45 52 52 48 48 42 35 35 35 32 35 32 35 35 42 39 39 42 39 35 35
0 0 0 0 0 3 3 6 6 23 42 29 42 52 55 48 39 29 35 39 45 42 45 42 45 52 52 45 45 39 45 39 39 35 29 32 35 35 39 42 39 39 29 29
0 0 0 0 0 0 3 3 6 19 29 29 39 42 39 35 35 29 26 26 35 35 39 39 39 52 55 45 42 39 42 32 29 32 32 35 39 42 32 39 35 32 26 16
0 0 0 0 0 0 0 6 23 26 32 42 35 39 39 26 26 26 19 19 23 19 23 26 39 45 48 42 39 39 42 35 35 35 32 29 26 26 26 32 29 23 13 10
0 0 0 0 0 0 0 6 32 26 35 42 42 32 26 23 23 19 16 16 19 23 23 29 29 35 42 39 35 29 32 35 35 35 32 26 29 29 29 16 16 13 6 3
0 0 0 6 6 0 26 39 32 26 29 29 32 26 16 13 10 13 10 13 16 19 26 19 19 23 35 29 29 26 26 26 23 26 19 16 19 19 16 13 10 6 6 6
0 3 19 13 13 23 26 26 32 23 19 23 26 10 13 10 10 13 13 13 19 16 13 13 19 23 23 26 23 23 16 13 13 16 13 16 16 16 10 10 10 6 6 6
6 3 13 13 16 16 23 23 23 13 19 19 16 10 6 6 10 10 10 10 13 10 13 10 13 13 16 16 16 13 10 6 6 6 6 6 6 6 0 3 3 6 3 3
10 6 6 13 16 16 19 10 16 13 6 6 6 10 6 6 6 3 6 10 6 6 10 6 6 3 10 13 10 6 6 6 6 6 6 3 3 0 0 0 0 3 3 3
3 10 6 13 13 10 10 6 10 10 3 6 3 6 6 6 3 0 3 6 6 6 6 3 3 3 6 10 10 6 6 6 6 6 3 0 0 0 0 0 0 0 0 0
6 10 10 3 3 6 6 6 3 3 6 6 3 6 3 3 0 0 0 3 3 3 6 6 3 6 6 6 6 6 6 6 6 3 0 0 0 0 0 0 0 0 0 0
6 0 0 0 0 0 0 0 3 6 6 6 3 3 3 0 0 0 0 0 0 3 3 0 0 3 3 3 6 6 6 6 3 0 0 0 0 0 0 0 0 0 0 0
3 0 0 0 0 0 3 3 6 6 6 6 3 0 0 0 0 0 0 0 0 0 0 0 0 0 0 0 3 6 6 3 0 0 0 0 0 0 0 0 0 0 0 0
0 0 3 0 0 0 0 0 3 3 3 0 0 0 0 0 0 0 0 0 0 0 0 0 0 0 0 0 0 3 0 0 0 0 0 0 0 0 0 0 0 0 0 0
0 0 0 0 0 0 0 0 0 0 0 0 0 0 0 0 0 0 0 0 0 0 0 0 0 0 0 0 0 0 0 0 0 0 0 0 0 0 0 0 0 0 0 0
0 0 0 0 3 0 0 0 0 0 0 0 0 0 0 0 0 0 0 0 0 0 0 0 0 0 0 0 0 0 0 0 0 0 0 0 0 0 0 0 0 0 0 0
0 0 0 0 0 0 0 0 0 0 3 0 0 0 0 0 0 0 0 0 0 0 0 0 0 0 0 0 0 0 0 0 0 0 0 0 0 0 0 0 0 0 0 0
0 0 0 0 0 0 0 0 0 3 3 3 0 0 0 0 0 0 0 0 0 0 0 0 0 0 0 0 0 0 0 0 0 0 0 0 0 0 0 0 0 0 0 0
0 0 0 0 0 0 0 0 0 0 3 3 3 0 0 0 0 0 0 0 0 0 0 0 0 0 0 0 0 0 0 0 0 0 0 0 0 0 0 0 0 0 0 0
0 0 0 0 0 0 0 0 3 3 3 3 3 0 0 0 0 0 0 0 0 0 0 0 0 0 0 0 0 0 0 0 0 0 0 0 0 0 0 0 0 0 0 0
0 0 0 0 0 0 0 0 0 3 3 3 0 0 0 0 0 0 0 0 0 0 0 0 0 0 0 0 0 0 0 0 0 0 0 0 0 0 0 0 0 0 0 0
0 0 0 0 0 0 0 0 0 3 3 0 0 0 0 0 0 0 0 0 0 0 0 0 0 0 0 0 0 0 0 0 0 0 0 0 0 0 0 0 0 0 0 0
0 0 0 0 0 0 0 0 0 0 0 0 0 0 0 0 0 0 0 0 0 0 0 0 0 0 0 0 0 0 0 0 0 0 0 0 0 0 0 0 0 0 0 0
0 0 0 0 0 0 0 0 0 0 0 0 0 0 0 0 0 0 0 0 0 0 0 0 0 0 0 0 0 0 0 0 0 0 0 0 0 0 0 0 0 0 0 0
0 0 0 0 0 0 0 0 0 0 0 0 0 0 0 0 0 0 0 0 0 0 0 0 0 0 0 0 0 0 0 0 0 0 0 0 0 0 0 0 0 0 0 0

GEFSNGP_con_cape1000_162.txt.gz
Probability
0 0 0 0 0 0 0 0 0 0 6 16 26 32 55 58 68 68 71 71 71 68 71 68 68 65 68 61 65 61 58 68 61 58 55 52 48 45 45 39 42 45 55 42
0 0 0 0 0 0 0 0 0 3 16 26 35 45 58 65 65 71 68 65 74 74 71 71 71 68 68 65 58 58 65 58 61 55 55 48 52 48 48 35 48 42 35 32
0 0 0 0 0 0 0 0 0 3 32 39 42 55 71 81 71 74 68 71 71 74 74 74 71 68 61 58 55 65 61 61 52 48 48 48 39 45 35 35 39 35 32 35
0 0 0 0 0 0 3 6 6 13 29 42 52 65 71 77 74 61 58 58 61 65 61 65 61 61 65 65 65 58 55 48 52 52 42 42 42 45 35 35 29 29 26 29
3 0 0 0 0 0 3 10 10 26 32 42 55 55 58 65 68 61 55 58 52 52 52 55 55 55 55 65 52 48 48 48 48 45 42 42 39 35 32 29 32 29 26 26
3 0 0 3 3 0 3 10 19 19 32 45 42 52 65 58 48 48 45 45 52 52 48 52 55 48 48 45 45 48 42 42 45 39 39 35 32 32 32 29 29 19 16 16
0 0 3 0 0 0 0 26 48 45 52 48 65 71 61 48 32 39 39 39 35 42 48 52 48 42 39 42 42 42 39 42 42 39 39 35 32 32 32 32 23 19 13 13
0 0 0 6 6 23 74 68 58 58 71 61 61 55 45 39 35 35 39 32 35 42 39 39 45 39 39 39 42 39 32 32 32 29 29 26 29 29 26 23 19 16 16 6
16 29 58 58 58 71 68 68 61 65 58 52 48 35 35 35 32 29 26 23 29 35 39 39 32 29 29 32 32 23 23 26 26 23 23 19 23 16 23 19 13 13 3 3
39 39 42 45 48 42 45 52 48 42 45 45 32 26 26 26 23 19 13 19 19 29 26 23 26 26 23 19 13 16 16 13 10 10 6 6 6 6 6 10 10 10 3 3
23 26 13 19 29 35 35 32 39 32 29 29 26 23 23 19 16 13 13 13 16 13 13 10 13 13 13 10 13 10 13 10 10 10 6 3 3 3 3 3 3 3 3 3
13 23 19 23 23 26 26 32 29 23 16 16 16 19 13 16 10 10 10 13 13 10 3 3 6 3 6 10 10 10 6 10 6 6 3 3 3 3 0 3 0 0 0 0
16 10 29 19 16 16 19 23 19 19 16 13 13 13 16 13 10 10 6 6 6 6 0 3 3 3 3 3 6 6 6 6 6 3 3 3 3 3 0 0 0 0 0 0
16 16 16 13 10 13 13 16 13 10 10 6 13 13 13 13 10 6 3 3 6 0 0 0 0 0 3 3 6 6 6 6 3 3 3 3 3 3 0 0 0 0 0 0
13 13 16 6 10 6 6 6 6 10 10 10 10 10 10 6 6 3 3 3 3 0 0 0 0 0 0 3 6 6 6 3 3 3 3 3 3 3 0 0 0 0 0 0
10 10 6 6 3 0 3 6 10 10 13 6 6 6 6 0 3 3 3 3 0 0 0 0 0 0 0 3 3 0 3 0 3 3 3 3 3 0 0 0 0 0 0 0
6 6 3 3 3 0 0 3 3 6 13 6 6 3 0 0 0 0 0 0 0 0 0 0 0 0 0 0 0 0 0 3 0 3 3 0 0 0 0 0 0 0 0 0
6 3 3 3 3 0 0 0 3 3 10 3 0 0 0 0 0 0 0 0 0 0 0 0 0 0 0 0 0 0 0 0 0 0 0 0 0 0 0 0 0 0 0 0
3 3 3 3 0 0 0 0 3 3 3 3 0 0 0 0 0 0 0 0 0 0 0 0 0 0 0 0 0 0 0 0 0 0 0 0 0 0 0 0 0 0 0 0
3 0 0 3 3 0 0 3 0 3 0 3 3 0 0 0 0 0 0 0 0 0 0 0 0 0 0 0 0 0 0 0 0 0 0 0 0 0 0 0 0 0 0 0
0 0 0 3 0 0 0 0 0 0 3 3 3 3 0 0 0 0 0 0 0 0 0 0 0 0 0 0 0 0 0 0 0 0 0 0 0 0 0 0 0 0 0 0
0 6 3 3 0 0 0 0 0 0 0 0 0 0 0 0 0 0 0 0 0 0 0 0 0 0 0 0 0 0 0 0 0 0 0 0 0 0 0 0 0 0 0 0
3 3 3 0 0 0 0 0 0 0 0 3 0 0 0 3 3 0 0 0 0 0 0 0 0 0 0 0 0 0 0 0 0 0 0 0 0 0 0 0 0 0 0 0
3 6 3 0 0 0 0 0 0 0 3 3 3 3 3 3 3 0 0 0 0 0 0 0 0 0 0 0 0 0 0 0 0 0 0 0 0 0 0 0 0 0 0 0
3 3 3 0 0 0 0 0 0 0 3 3 3 3 3 3 0 0 0 0 0 0 0 0 0 0 0 0 0 0 0 0 0 0 0 0 0 0 0 0 0 0 0 0
0 3 3 6 3 3 0 0 0 0 3 3 0 0 0 0 0 0 0 0 0 0 0 0 0 0 0 0 0 0 0 0 0 0 0 0 0 0 0 0 0 0 0 0
3 3 3 3 0 3 0 0 0 0 0 0 0 0 0 0 0 0 0 0 0 0 0 0 0 0 0 0 0 0 0 0 0 0 0 0 0 0 0 0 0 0 0 0

GEFSNGP_con_cape1000_168.txt.gz
Probability
0 0 0 0 0 0 0 0 0 3 6 10 10 6 10 23 26 32 39 39 32 35 26 26 26 23 23 29 26 26 23 16 19 19 19 13 16 16 19 16 16 13 13 13
0 0 0 0 0 0 0 0 0 0 6 6 10 6 19 23 26 45 42 42 42 32 29 23 26 19 16 19 19 19 19 10 13 13 13 13 16 13 13 13 13 16 16 13
0 0 0 0 0 0 0 0 3 3 6 10 13 16 26 29 29 42 45 45 42 39 32 23 26 16 16 16 16 16 13 10 6 6 10 13 13 13 13 13 13 13 13 13
0 0 0 0 0 0 3 0 6 10 13 16 10 13 16 10 32 39 39 48 48 42 29 23 26 26 16 13 6 6 10 10 13 13 6 10 13 13 13 13 10 10 10 6
0 0 0 0 0 0 0 3 13 19 19 3 10 10 13 13 16 16 23 26 29 29 29 23 26 23 16 13 13 10 6 10 10 3 10 13 16 13 6 3 3 3 3 3
0 0 0 0 0 0 0 6 13 19 19 19 13 19 23 16 19 16 16 19 19 16 19 26 23 19 19 13 10 10 13 10 3 6 10 10 10 6 6 3 0 0 0 0
0 0 0 0 0 0 0 6 10 19 19 13 16 13 19 16 13 16 23 23 19 13 16 19 16 23 23 19 16 13 13 13 10 6 6 3 3 6 0 0 0 0 0 0
0 0 0 0 19 10 3 3 6 6 10 16 13 10 10 10 13 16 13 16 10 6 6 13 16 16 19 10 10 10 13 10 10 3 6 6 3 0 0 0 0 0 0 0
0 0 0 0 10 3 6 6 6 6 13 16 13 13 10 10 6 10 10 3 3 3 3 3 3 10 10 6 6 3 3 0 0 0 0 0 0 0 0 0 0 0 0 0
0 0 3 3 6 13 13 16 6 0 3 10 13 6 3 3 3 6 6 3 3 3 3 3 3 3 0 0 0 6 3 6 0 0 0 0 0 0 0 0 0 0 0 0
0 0 3 6 3 10 6 10 3 0 3 6 3 6 3 3 0 0 3 0 0 0 0 0 3 0 0 0 0 0 3 3 3 0 0 0 0 0 0 0 0 0 0 0
0 0 0 3 3 6 0 0 0 0 0 3 3 0 0 0 0 0 0 0 0 0 0 0 0 0 0 0 0 0 0 3 0 0 0 0 0 0 0 0 0 0 0 0
0 0 0 3 6 0 0 0 0 0 0 0 0 0 0 0 0 0 0 0 0 0 0 0 0 0 0 0 0 0 0 3 0 0 0 0 0 0 0 0 0 0 0 0
0 0 0 3 6 0 0 0 0 0 3 3 3 0 0 0 0 0 0 0 0 0 0 0 0 0 0 0 0 0 0 0 0 0 0 0 0 0 0 0 0 0 0 0
3 0 0 3 0 0 0 0 0 0 0 3 3 0 0 0 0 0 0 0 0 0 0 0 0 0 0 0 0 0 0 0 0 0 0 0 0 0 0 0 0 0 0 0
0 0 3 0 0 0 0 0 0 0 0 3 0 0 0 0 0 0 0 0 0 0 0 0 0 0 0 0 0 0 0 0 0 0 0 0 0 0 0 0 0 0 0 0
0 0 3 0 0 0 0 0 0 0 0 0 0 0 0 0 0 0 0 0 0 0 0 0 0 0 0 0 0 0 0 0 0 0 0 0 0 0 0 0 0 0 0 0
0 0 3 0 0 0 0 0 0 0 0 0 0 0 0 0 0 0 0 0 0 0 0 0 0 0 0 0 0 0 0 0 0 0 0 0 0 0 0 0 0 0 0 0
3 0 0 0 0 0 0 0 0 0 0 0 0 0 0 0 0 0 0 0 0 0 0 0 0 0 0 0 0 0 0 0 0 0 0 0 0 0 0 0 0 0 0 0
0 0 0 0 0 0 0 0 0 0 0 0 0 0 0 0 0 0 0 0 0 0 0 0 0 0 0 0 0 0 0 0 0 0 0 0 0 0 0 0 0 0 0 0
0 0 0 0 0 0 0 0 0 0 0 0 0 0 0 0 0 0 0 0 0 0 0 0 0 0 0 0 0 0 0 0 0 0 0 0 0 0 0 0 0 0 0 0
0 0 0 0 0 0 0 0 0 0 0 0 0 0 0 0 0 0 0 0 0 0 0 0 0 0 0 0 0 0 0 0 0 0 0 0 0 0 0 0 0 0 0 0
0 0 0 0 0 0 0 0 0 0 0 0 0 0 0 0 0 0 0 0 0 0 0 0 0 0 0 0 0 0 0 0 0 0 0 0 0 0 0 0 0 0 0 0
0 0 0 0 0 0 0 0 0 0 0 0 0 0 0 0 0 0 0 0 0 0 0 0 0 0 0 0 0 0 0 0 0 0 0 0 0 0 0 0 0 0 0 0
0 0 0 0 0 0 0 0 0 0 0 0 0 0 0 0 0 0 0 0 0 0 0 0 0 0 0 0 0 0 0 0 0 0 0 0 0 0 0 0 0 0 0 0
0 0 0 0 0 0 0 0 0 0 0 0 0 0 0 0 0 0 0 0 0 0 0 0 0 0 0 0 0 0 0 0 0 0 0 0 0 0 0 0 0 0 0 0
0 0 0 0 0 0 0 0 0 0 0 0 0 0 0 0 0 0 0 0 0 0 0 0 0 0 0 0 0 0 0 0 0 0 0 0 0 0 0 0 0 0 0 0

GEFSNGP_con_cape1000_174.txt.gz
Probability
0 0 0 0 0 0 0 0 0 0 0 3 10 10 16 19 26 26 26 23 19 23 16 13 16 16 10 10 6 10 13 13 13 13 16 16 13 13 13 10 13 10 10 10
0 0 0 0 0 0 0 0 0 0 0 3 6 10 13 26 26 23 23 19 26 19 13 10 10 13 10 3 3 3 3 3 6 6 6 6 16 13 10 6 10 10 10 10
0 0 0 0 0 0 0 0 0 0 0 6 3 6 10 23 23 19 19 16 16 16 13 10 10 6 6 6 3 3 3 3 3 3 3 6 6 3 10 10 10 10 10 10
0 0 0 0 0 0 3 3 3 0 0 3 0 3 6 10 13 19 19 19 13 13 6 6 3 3 3 0 0 0 0 0 6 6 6 6 3 3 3 10 10 6 6 6
0 0 0 0 0 0 3 6 3 0 3 0 6 3 3 13 13 10 13 16 13 10 3 0 3 3 3 6 3 3 3 3 3 6 6 3 3 3 3 0 3 0 0 0
0 0 0 0 0 0 0 3 6 3 0 3 3 3 0 6 10 10 6 13 13 6 0 3 3 6 6 6 3 3 3 3 3 6 6 3 3 0 0 0 0 0 0 0
0 0 0 0 0 0 0 0 0 6 3 0 0 0 3 6 6 10 6 13 6 6 3 3 3 3 6 3 3 3 3 3 6 6 3 0 0 0 0 0 0 0 0 0
0 0 0 0 3 0 0 0 0 0 0 0 3 10 6 10 10 6 6 6 6 3 3 0 0 3 3 3 3 3 3 3 3 0 0 0 0 0 0 0 0 0 0 0
0 0 3 3 0 0 0 0 0 0 3 3 3 3 6 3 3 3 3 0 0 0 0 0 0 0 0 0 0 3 3 3 3 0 0 0 0 0 0 0 0 0 0 0
3 3 6 3 0 0 0 3 3 3 3 3 3 3 3 0 3 3 0 0 0 0 0 0 0 0 0 0 0 0 0 0 0 3 0 0 0 0 0 0 0 0 0 0
3 3 3 0 0 3 6 3 3 3 3 3 3 3 3 0 0 0 0 0 0 0 0 0 0 0 0 0 0 0 0 0 0 0 0 0 0 0 0 0 0 0 0 0
0 0 0 0 0 0 3 0 0 0 0 0 0 0 0 0 0 0 0 0 0 0 0 0 0 0 0 0 0 0 0 0 0 0 0 0 0 0 0 0 0 0 0 0
0 0 0 0 0 0 0 0 0 0 0 0 0 0 0 0 0 0 0 0 0 0 0 0 0 0 0 0 0 0 0 0 0 0 0 0 0 0 0 0 0 0 0 0
0 0 0 0 3 0 0 0 0 0 0 0 0 0 0 0 0 0 0 0 0 0 0 0 0 0 0 0 0 0 0 0 0 0 0 0 0 0 0 0 0 0 0 0
0 0 0 0 0 0 0 0 0 0 0 0 0 0 0 0 0 0 0 0 0 0 0 0 0 0 0 0 0 0 0 0 0 0 0 0 0 0 0 0 0 0 0 0
0 0 0 0 0 0 0 0 0 0 0 0 0 0 0 0 0 0 0 0 0 0 0 0 0 0 0 0 0 0 0 0 0 0 0 0 0 0 0 0 0 0 0 0
0 0 0 0 0 0 0 0 0 0 0 0 0 0 0 0 0 0 0 0 0 0 0 0 0 0 0 0 0 0 0 0 0 0 0 0 0 0 0 0 0 0 0 0
0 0 0 0 0 0 0 0 0 0 0 0 0 0 0 0 0 0 0 0 0 0 0 0 0 0 0 0 0 0 0 0 0 0 0 0 0 0 0 0 0 0 0 0
0 0 0 0 0 0 0 0 0 0 0 0 0 0 0 0 0 0 0 0 0 0 0 0 0 0 0 0 0 0 0 0 0 0 0 0 0 0 0 0 0 0 0 0
0 0 0 0 0 0 0 0 0 0 0 0 0 0 0 0 0 0 0 0 0 0 0 0 0 0 0 0 0 0 0 0 0 0 0 0 0 0 0 0 0 0 0 0
0 0 0 0 0 0 0 0 0 0 0 0 0 0 0 0 0 0 0 0 0 0 0 0 0 0 0 0 0 0 0 0 0 0 0 0 0 0 0 0 0 0 0 0
0 0 0 0 0 0 0 0 0 0 0 0 0 0 0 0 0 0 0 0 0 0 0 0 0 0 0 0 0 0 0 0 0 0 0 0 0 0 0 0 0 0 0 0
0 0 0 0 0 0 0 0 0 0 0 0 0 0 0 0 0 0 0 0 0 0 0 0 0 0 0 0 0 0 0 0 0 0 0 0 0 0 0 0 0 0 0 0
0 0 0 0 0 0 0 0 0 0 0 0 0 0 0 0 0 0 0 0 0 0 0 0 0 0 0 0 0 0 0 0 0 0 0 0 0 0 0 0 0 0 0 0
0 0 0 0 0 0 0 0 0 0 0 0 0 0 0 0 0 0 0 0 0 0 0 0 0 0 0 0 0 0 0 0 0 0 0 0 0 0 0 0 0 0 0 0
0 0 0 0 0 0 0 0 0 0 0 0 0 0 0 0 0 0 0 0 0 0 0 0 0 0 0 0 0 0 0 0 0 0 0 0 0 0 0 0 0 0 0 0
0 0 0 0 0 0 0 0 0 0 0 0 0 0 0 0 0 0 0 0 0 0 0 0 0 0 0 0 0 0 0 0 0 0 0 0 0 0 0 0 0 0 0 0